Flag for New Zealand Weather past 2 weeks in Wellington, New Zealand

Now
66 °F

Overcast.


Feels Like: 66 °F
Forecast: 66 / 71 °F
Wind: 17 mph from Northeast

Location: Wellington Airport

Current Time: Feb 1, 2015 at 9:54:38 PM

Latest Report: Feb 1, 2015 at 9:30 PM


Visibility: N/A

Pressure: 29.80 "Hg

Humidity: 94%

Dew point: 64 °F

Location of WellingtonLocation

Historic Weather in Wellington — Graph

°F

Wellington temperature yesterday

Maximum temperature yesterday: 66 °F (at 11:30 AM)
Minimum temperature yesterday: 63 °F (at 12:00 AM)
Average temperature yesterday: 64 °F

Past Weeks' High & Low Weather Summary

 TemperatureHumidityPressure
High81 °F (Jan 26, 3:00 PM)94% (Jan 30, 12:30 AM)30.30 "Hg (Jan 30, 12:30 AM)
Low52 °F (Jan 23, 6:30 AM)33% (Jan 20, 2:30 PM)29.50 "Hg (Jan 18, 6:00 PM)
Average66 °F72%29.97 "Hg
* Reported Jan 17 8:00 PM — Feb 1 8:30 PM, Wellington, Weather by CustomWeather, © 2014

Note: Actual official high and low records may vary slightly from our data, if they occured in-between our weather recording intervals... More about our weather records

Advertising

Wellington weather history for previous 24 hours

 ConditionsComfort  
Time TempWeatherWind HumidityBarometerVisibility
8:30 PM
Feb 1
68 °FMostly cloudy.17 mph88%29.77 "HgN/A
8:00 PM68 °FCloudy.16 mph88%29.77 "HgN/A
7:30 PM68 °FPartly sunny.18 mph88%29.80 "HgN/A
7:00 PM66 °FOvercast.17 mph94%29.80 "HgN/A
6:30 PM66 °FDrizzle. Cloudy.21 mph94%29.80 "Hg4 mi
6:00 PM66 °FMostly cloudy.26 mph94%29.80 "HgN/A
5:30 PM66 °FDrizzle. Overcast.22 mph94%29.80 "HgN/A
5:00 PM66 °FLight rain. Partly sunny.24 mph94%29.80 "HgN/A
4:30 PM66 °FLight rain. Partly sunny.25 mph94%29.83 "HgN/A
4:00 PM66 °FSprinkles. Overcast.21 mph94%29.83 "HgN/A
3:30 PM66 °FSprinkles. Low clouds.23 mph88%29.83 "HgN/A
3:00 PM68 °FOvercast.24 mph83%29.86 "HgN/A
2:30 PM70 °FPartly sunny.25 mph78%29.86 "HgN/A
2:00 PM68 °FOvercast.20 mph83%29.86 "HgN/A
1:30 PM70 °FOvercast.28 mph78%29.86 "HgN/A
1:00 PM68 °FOvercast.25 mph83%29.86 "HgN/A
12:30 PM70 °FPartly sunny.21 mph78%29.89 "HgN/A
12:00 PM70 °FBroken clouds.20 mph78%29.89 "HgN/A
11:30 AM72 °FPartly sunny.20 mph78%29.86 "HgN/A
11:00 AM72 °FPartly sunny.20 mph78%29.86 "HgN/A
10:30 AM72 °FCloudy.20 mph78%29.86 "HgN/A
10:00 AM72 °FOvercast.20 mph78%29.86 "HgN/A
9:30 AM70 °FBroken clouds.15 mph83%29.86 "HgN/A
9:00 AM70 °FPartly sunny.17 mph83%29.86 "HgN/A
8:30 AM68 °FPartly sunny.13 mph88%29.86 "HgN/A
8:00 AM68 °FPartly sunny.13 mph88%29.86 "HgN/A
7:30 AM68 °FMore clouds than sun.10 mph88%29.86 "HgN/A
7:00 AM68 °FBroken clouds.9 mph88%29.86 "HgN/A
6:30 AM68 °FBroken clouds.10 mph88%29.86 "HgN/A
6:00 AM68 °FPassing clouds.10 mph88%29.86 "HgN/A
5:30 AM68 °FOvercast.10 mph88%29.86 "HgN/A
5:00 AM68 °FMostly cloudy.8 mph88%29.86 "HgN/A
4:30 AM68 °FOvercast.7 mph88%29.89 "HgN/A
4:00 AM68 °FOvercast.7 mph88%29.89 "HgN/A
3:30 AM68 °FOvercast.7 mph88%29.89 "HgN/A
3:00 AM68 °FOvercast.8 mph88%29.89 "HgN/A
2:30 AM68 °FOvercast.9 mph88%29.89 "HgN/A
2:00 AM68 °FMostly cloudy.9 mph83%29.92 "HgN/A
1:30 AM68 °FPassing clouds.10 mph83%29.92 "HgN/A
1:00 AM68 °FPassing clouds.9 mph83%29.92 "HgN/A
12:30 AM68 °FMostly cloudy.9 mph83%29.95 "HgN/A
12:00 AM66 °FPassing clouds.6 mph88%29.95 "HgN/A
11:30 PM
Jan 31
66 °FPassing clouds.8 mph88%29.95 "HgN/A
11:00 PM66 °FPassing clouds.8 mph88%29.95 "HgN/A
10:30 PM66 °FMostly cloudy.7 mph88%29.95 "HgN/A
10:00 PM64 °FOvercast.1 mph94%29.95 "HgN/A
9:30 PM63 °FOvercast.5 mph94%29.92 "HgN/A
9:00 PM63 °FPassing clouds.3 mph94%29.92 "HgN/A
Weather by CustomWeather, © 2014

See weather overviewHow to use our weather pages